User: anonymous   Login
Location: Unspecified
(0.0000°N, 0.0000°E)
Time: 03:48:22
(UTC+01:00)
Language:

Delta 2 Rocket - Orbit

View from above orbital plane
View from above orbital plane
View from above satellite
View from above satellite

Ground track
Ground track

The orbit data is extracted from the following two-line orbital elements,

1 20453U 90008B   15062.50956595  .00006678  00000-0  41051-3 0  9990
2 20453 035.6260 090.0924 0308698 071.9176 291.4907 14.77666662324098
Epoch (UTC): 03 March 2015 12:13:46
Eccentricity: 0.0308698
inclination: 35.6260°
perigee height: 420 km
apogee height: 853 km
right ascension of ascending node: 90.0924°
argument of perigee: 71.9176°
revolutions per day: 14.77666662
mean anomaly at epoch: 291.4907°
orbit number at epoch: 32409

The dashed part of the orbit path shows where the satellite is in the earth's shadow,  

DLR